RYR2829 EGGD-LGSK

Flight info

Callsign RYR2829
Flight time 3h 14m
Altitude 39000
Route YORQI DCT NUCHU L607 BIG L15 MOTOX DCT RUCAC DCT LESDO DCT ETINO DCT LASAT DCT DEVDI DCT RIPUS DCT RESIA DCT NIKOL DCT AIOSA DCT PAPIZ DCT DIMIS UL604 YNN UY121 AGH T6 EVIKO
Aircraft B738/M-SDE2E3FGHIRWXY/LB1

Departure

Time 2026-04-26 07:19
Airport Bristol Airport (EGGD)

Arrival

Time 2026-04-26 10:33
Airport Skiathos Island National Airport (LGSK)
Time Latitude Longitude Altitude Speed Heading
2026-04-26 06:50 51.38544 -2.71416 621 ft 0 kts 356°
2026-04-26 07:10 51.38540 -2.71415 612 ft 3 kts 356°
2026-04-26 07:11 51.38486 -2.71410 618 ft 4 kts 356°
2026-04-26 07:11 51.38465 -2.71408 622 ft 4 kts 338°
2026-04-26 07:11 51.38449 -2.71384 628 ft 4 kts 275°
2026-04-26 07:11 51.38450 -2.71353 628 ft 0 kts 266°
2026-04-26 07:14 51.38450 -2.71355 628 ft 1 kts 266°
2026-04-26 07:14 51.38449 -2.71383 627 ft 4 kts 266°
2026-04-26 07:15 51.38446 -2.71447 616 ft 8 kts 266°
2026-04-26 07:15 51.38441 -2.71581 611 ft 15 kts 266°
2026-04-26 07:15 51.38433 -2.71775 605 ft 19 kts 266°
2026-04-26 07:15 51.38433 -2.71991 605 ft 19 kts 269°
2026-04-26 07:16 51.38425 -2.72216 619 ft 20 kts 266°
2026-04-26 07:16 51.38416 -2.72435 611 ft 19 kts 266°
2026-04-26 07:16 51.38406 -2.72662 615 ft 22 kts 266°
2026-04-26 07:16 51.38396 -2.72924 617 ft 25 kts 266°
2026-04-26 07:17 51.38385 -2.73175 607 ft 17 kts 265°
2026-04-26 07:17 51.38336 -2.73329 624 ft 16 kts 205°
2026-04-26 07:17 51.38237 -2.73309 624 ft 9 kts 143°
2026-04-26 07:17 51.38217 -2.73227 625 ft 5 kts 84°
2026-04-26 07:18 51.38218 -2.73222 626 ft 0 kts 83°
2026-04-26 07:18 51.38233 -2.72881 627 ft 70 kts 88°
2026-04-26 07:18 51.38276 -2.71678 608 ft 145 kts 86°
2026-04-26 07:19 51.38344 -2.69843 1076 ft 168 kts 87°
2026-04-26 07:19 51.38411 -2.67992 2103 ft 170 kts 90°
2026-04-26 07:19 51.38459 -2.66005 2703 ft 193 kts 90°
2026-04-26 07:19 51.38523 -2.63786 3056 ft 213 kts 89°
2026-04-26 07:20 51.38600 -2.61271 3451 ft 230 kts 89°
2026-04-26 07:20 51.38684 -2.58616 3828 ft 250 kts 89°
2026-04-26 07:20 51.39004 -2.55861 4384 ft 264 kts 64°
2026-04-26 07:20 51.40249 -2.53697 5304 ft 268 kts 39°
2026-04-26 07:21 51.41472 -2.51473 5741 ft 267 kts 69°
2026-04-26 07:21 51.41756 -2.48555 6001 ft 270 kts 91°
2026-04-26 07:21 51.41710 -2.45538 6002 ft 270 kts 91°
2026-04-26 07:21 51.41797 -2.42528 6023 ft 272 kts 85°
2026-04-26 07:22 51.42019 -2.39480 6551 ft 278 kts 83°
2026-04-26 07:22 51.42257 -2.36428 7480 ft 276 kts 83°
2026-04-26 07:22 51.42492 -2.33362 8274 ft 280 kts 83°
2026-04-26 07:22 51.42725 -2.30233 9025 ft 285 kts 84°
2026-04-26 07:23 51.42955 -2.27060 9832 ft 289 kts 84°
2026-04-26 07:23 51.43184 -2.23835 10565 ft 294 kts 84°
2026-04-26 07:23 51.43419 -2.20456 10812 ft 318 kts 84°
2026-04-26 07:23 51.43669 -2.16811 11075 ft 338 kts 84°
2026-04-26 07:24 51.43927 -2.13023 11679 ft 346 kts 84°
2026-04-26 07:24 51.44188 -2.09168 12404 ft 350 kts 85°
2026-04-26 07:24 51.44449 -2.05274 13125 ft 354 kts 85°
2026-04-26 07:24 51.44713 -2.01319 13830 ft 359 kts 85°
2026-04-26 07:25 51.44979 -1.97313 14490 ft 364 kts 85°
2026-04-26 07:25 51.45246 -1.93258 15135 ft 367 kts 85°
2026-04-26 07:25 51.45514 -1.89172 15805 ft 370 kts 85°
2026-04-26 07:25 51.45783 -1.85057 16463 ft 373 kts 85°
2026-04-26 07:26 51.46054 -1.80893 17083 ft 378 kts 85°
2026-04-26 07:26 51.46327 -1.76679 17696 ft 382 kts 85°
2026-04-26 07:26 51.46600 -1.72420 18322 ft 386 kts 85°
2026-04-26 07:26 51.46769 -1.68112 18880 ft 389 kts 92°
2026-04-26 07:27 51.46467 -1.63803 19402 ft 391 kts 103°
2026-04-26 07:27 51.45855 -1.59534 19918 ft 394 kts 104°
2026-04-26 07:27 51.45222 -1.55226 20421 ft 399 kts 104°
2026-04-26 07:27 51.44605 -1.50871 20924 ft 403 kts 103°
2026-04-26 07:28 51.43996 -1.46463 21430 ft 407 kts 103°
2026-04-26 07:28 51.43385 -1.42028 21924 ft 410 kts 103°
2026-04-26 07:28 51.42762 -1.37530 22400 ft 415 kts 103°
2026-04-26 07:28 51.42134 -1.33009 22868 ft 419 kts 103°
2026-04-26 07:29 51.41496 -1.28430 23342 ft 423 kts 103°
2026-04-26 07:29 51.40851 -1.23811 23810 ft 426 kts 103°
2026-04-26 07:29 51.40201 -1.19174 24203 ft 430 kts 103°
2026-04-26 07:29 51.39565 -1.14481 24611 ft 432 kts 100°
2026-04-26 07:30 51.39194 -1.09681 25020 ft 435 kts 95°
2026-04-26 07:30 51.38956 -1.04906 25412 ft 437 kts 94°
2026-04-26 07:30 51.38746 -0.99973 25797 ft 440 kts 94°
2026-04-26 07:30 51.38540 -0.95146 26177 ft 443 kts 94°
2026-04-26 07:31 51.38313 -0.90151 26576 ft 445 kts 94°
2026-04-26 07:31 51.38077 -0.85269 26950 ft 447 kts 94°
2026-04-26 07:31 51.37823 -0.80285 27315 ft 450 kts 94°
2026-04-26 07:31 51.37561 -0.75287 27665 ft 453 kts 94°
2026-04-26 07:32 51.37292 -0.70262 28009 ft 455 kts 95°
2026-04-26 07:32 51.37018 -0.65198 28361 ft 458 kts 95°
2026-04-26 07:32 51.36742 -0.60131 28695 ft 460 kts 95°
2026-04-26 07:32 51.36461 -0.55005 29021 ft 462 kts 95°
2026-04-26 07:33 51.36176 -0.49857 29361 ft 465 kts 95°
2026-04-26 07:33 51.35889 -0.44695 29660 ft 467 kts 95°
2026-04-26 07:33 51.35600 -0.39523 29965 ft 469 kts 95°
2026-04-26 07:33 51.35304 -0.34294 30264 ft 472 kts 95°
2026-04-26 07:34 51.35007 -0.29078 30528 ft 474 kts 95°
2026-04-26 07:34 51.34706 -0.23820 30764 ft 476 kts 95°
2026-04-26 07:34 51.34399 -0.18528 31015 ft 478 kts 95°
2026-04-26 07:34 51.34091 -0.13234 31242 ft 479 kts 95°
2026-04-26 07:35 51.33780 -0.07914 31515 ft 480 kts 95°
2026-04-26 07:35 51.33466 -0.02622 31870 ft 478 kts 95°
2026-04-26 07:35 51.33047 0.02644 32272 ft 477 kts 101°
2026-04-26 07:35 51.32167 0.07754 32515 ft 477 kts 111°
2026-04-26 07:36 51.30925 0.12679 32782 ft 477 kts 112°
2026-04-26 07:36 51.29639 0.17565 33045 ft 478 kts 113°
2026-04-26 07:36 51.28345 0.22455 33338 ft 477 kts 113°
2026-04-26 07:36 51.27063 0.27336 33661 ft 476 kts 112°
2026-04-26 07:37 51.25794 0.32218 33940 ft 476 kts 112°
2026-04-26 07:37 51.24535 0.37099 34214 ft 476 kts 112°
2026-04-26 07:37 51.23281 0.41981 34452 ft 476 kts 112°
2026-04-26 07:37 51.22030 0.46852 34711 ft 475 kts 112°
2026-04-26 07:38 51.20778 0.51717 35006 ft 473 kts 112°
2026-04-26 07:38 51.19530 0.56555 35307 ft 471 kts 112°
2026-04-26 07:38 51.18286 0.61366 35542 ft 471 kts 112°
2026-04-26 07:38 51.17031 0.66206 35734 ft 471 kts 112°
2026-04-26 07:39 51.15780 0.71022 35950 ft 471 kts 112°
2026-04-26 07:39 51.14540 0.75780 36201 ft 470 kts 112°
2026-04-26 07:39 51.13271 0.80643 36438 ft 469 kts 112°
2026-04-26 07:39 51.12032 0.85378 36662 ft 469 kts 112°
2026-04-26 07:40 51.10777 0.90168 36857 ft 469 kts 112°
2026-04-26 07:40 51.09521 0.94951 37118 ft 469 kts 112°
2026-04-26 07:40 51.08263 0.99737 37345 ft 468 kts 112°
2026-04-26 07:41 51.05736 1.09312 37345 ft 470 kts 112°
2026-04-26 07:41 51.03215 1.18842 37332 ft 465 kts 112°
2026-04-26 07:42 51.00711 1.28283 37328 ft 462 kts 112°
2026-04-26 07:42 50.98219 1.37648 37327 ft 460 kts 112°
2026-04-26 07:43 50.95721 1.46994 37339 ft 463 kts 112°
2026-04-26 07:43 50.93590 1.54852 37327 ft 469 kts 112°
2026-04-26 07:44 50.90993 1.64360 37317 ft 472 kts 112°
2026-04-26 07:44 50.88078 1.73676 37310 ft 474 kts 124°
2026-04-26 07:45 50.83705 1.81446 37334 ft 473 kts 137°
2026-04-26 07:45 50.78893 1.88538 37353 ft 472 kts 138°
2026-04-26 07:46 50.74098 1.95618 37327 ft 471 kts 137°
2026-04-26 07:46 50.69354 2.02693 37312 ft 468 kts 137°
2026-04-26 07:47 50.64642 2.09740 37309 ft 465 kts 137°
2026-04-26 07:47 50.59958 2.16729 37306 ft 462 kts 137°
2026-04-26 07:48 50.55290 2.23670 37307 ft 461 kts 137°
2026-04-26 07:48 50.50637 2.30566 37315 ft 460 kts 137°
2026-04-26 07:49 50.45981 2.37448 37315 ft 460 kts 137°
2026-04-26 07:49 50.41318 2.44320 37314 ft 460 kts 137°
2026-04-26 07:50 50.34300 2.54627 37310 ft 461 kts 137°
2026-04-26 07:50 50.29608 2.61493 37310 ft 462 kts 137°
2026-04-26 07:51 50.24900 2.68363 37305 ft 463 kts 137°
2026-04-26 07:51 50.20176 2.75238 37310 ft 464 kts 137°
2026-04-26 07:52 50.15439 2.82112 37292 ft 465 kts 138°
2026-04-26 07:52 50.10701 2.88968 37298 ft 465 kts 138°
2026-04-26 07:53 50.05956 2.95813 37291 ft 465 kts 138°
2026-04-26 07:53 50.01211 3.02642 37295 ft 464 kts 138°
2026-04-26 07:54 49.96465 3.09450 37288 ft 464 kts 138°
2026-04-26 07:54 49.91753 3.16194 37280 ft 463 kts 138°
2026-04-26 07:55 49.86990 3.22993 37300 ft 462 kts 138°
2026-04-26 07:55 49.82283 3.29691 37283 ft 462 kts 138°
2026-04-26 07:56 49.77944 3.36974 37307 ft 461 kts 129°
2026-04-26 07:56 49.74003 3.44794 37288 ft 460 kts 128°
2026-04-26 07:57 49.70072 3.52591 37284 ft 460 kts 128°
2026-04-26 07:57 49.66108 3.60321 37294 ft 459 kts 129°
2026-04-26 07:58 49.62121 3.68016 37276 ft 459 kts 129°
2026-04-26 07:58 49.58128 3.75689 37281 ft 459 kts 129°
2026-04-26 07:59 49.54135 3.83343 37286 ft 458 kts 129°
2026-04-26 07:59 49.50133 3.90994 37281 ft 459 kts 129°
2026-04-26 08:00 49.46127 3.98632 37278 ft 459 kts 129°
2026-04-26 08:00 49.42113 4.06263 37279 ft 459 kts 129°
2026-04-26 08:01 49.38092 4.13886 37279 ft 459 kts 129°
2026-04-26 08:01 49.34064 4.21501 37276 ft 460 kts 129°
2026-04-26 08:02 49.30026 4.29111 37278 ft 460 kts 130°
2026-04-26 08:02 49.25983 4.36709 37270 ft 460 kts 130°
2026-04-26 08:03 49.21932 4.44301 37290 ft 461 kts 130°
2026-04-26 08:03 49.17899 4.51837 37272 ft 461 kts 130°
2026-04-26 08:04 49.13813 4.59450 37279 ft 461 kts 130°
2026-04-26 08:04 49.09770 4.66963 37264 ft 461 kts 130°
2026-04-26 08:05 49.05702 4.74502 37264 ft 460 kts 130°
2026-04-26 08:05 49.01629 4.82027 37267 ft 460 kts 130°
2026-04-26 08:06 48.97551 4.89541 37269 ft 460 kts 130°
2026-04-26 08:06 48.93480 4.97024 37248 ft 459 kts 130°
2026-04-26 08:07 48.89405 5.04491 37260 ft 458 kts 130°
2026-04-26 08:07 48.85683 5.12337 37258 ft 458 kts 124°
2026-04-26 08:08 48.82222 5.20459 37257 ft 458 kts 123°
2026-04-26 08:08 48.78756 5.28555 37266 ft 457 kts 124°
2026-04-26 08:09 48.75253 5.36594 37250 ft 457 kts 124°
2026-04-26 08:09 48.71729 5.44605 37254 ft 457 kts 124°
2026-04-26 08:10 48.68201 5.52590 37242 ft 456 kts 124°
2026-04-26 08:10 48.64692 5.60513 37249 ft 456 kts 124°
2026-04-26 08:11 48.61158 5.68471 37262 ft 456 kts 124°
2026-04-26 08:11 48.57616 5.76426 37268 ft 456 kts 125°
2026-04-26 08:12 48.54070 5.84367 37269 ft 456 kts 125°
2026-04-26 08:12 48.50517 5.92298 37248 ft 456 kts 125°
2026-04-26 08:13 48.46940 6.00260 37230 ft 456 kts 125°
2026-04-26 08:13 48.43403 6.08110 37246 ft 456 kts 125°
2026-04-26 08:14 48.39839 6.15996 37243 ft 456 kts 125°
2026-04-26 08:14 48.36268 6.23876 37237 ft 456 kts 125°
2026-04-26 08:15 48.32693 6.31742 37237 ft 456 kts 125°
2026-04-26 08:15 48.29119 6.39584 37237 ft 455 kts 126°
2026-04-26 08:16 48.25534 6.47427 37226 ft 455 kts 126°
2026-04-26 08:16 48.21947 6.55252 37225 ft 455 kts 126°
2026-04-26 08:17 48.18362 6.63055 37233 ft 454 kts 126°
2026-04-26 08:17 48.14767 6.70824 37227 ft 454 kts 127°
2026-04-26 08:18 48.11084 6.78508 37223 ft 454 kts 127°
2026-04-26 08:18 48.07382 6.86154 37223 ft 454 kts 127°
2026-04-26 08:19 48.03685 6.93796 37223 ft 453 kts 127°
2026-04-26 08:19 47.99992 7.01431 37225 ft 453 kts 127°
2026-04-26 08:20 47.96303 7.09040 37234 ft 452 kts 127°
2026-04-26 08:20 47.92616 7.16622 37234 ft 452 kts 127°
2026-04-26 08:21 47.88921 7.24202 37237 ft 451 kts 128°
2026-04-26 08:21 47.85222 7.31766 37240 ft 452 kts 128°
2026-04-26 08:22 47.81549 7.39259 37244 ft 452 kts 128°
2026-04-26 08:22 47.77838 7.46808 37238 ft 452 kts 128°
2026-04-26 08:23 47.74121 7.54350 37239 ft 452 kts 128°
2026-04-26 08:23 47.70396 7.61872 37237 ft 453 kts 128°
2026-04-26 08:24 47.66652 7.69407 37241 ft 454 kts 128°
2026-04-26 08:24 47.62895 7.76951 37237 ft 455 kts 128°
2026-04-26 08:25 47.59184 7.84386 37231 ft 455 kts 128°
2026-04-26 08:25 47.55361 7.92024 37229 ft 456 kts 129°
2026-04-26 08:26 47.51583 7.99552 37208 ft 456 kts 129°
2026-04-26 08:26 47.47802 8.07066 37223 ft 455 kts 129°
2026-04-26 08:27 47.44013 8.14573 37214 ft 456 kts 129°
2026-04-26 08:27 47.40222 8.22065 37225 ft 455 kts 129°
2026-04-26 08:28 47.36427 8.29545 37212 ft 455 kts 129°
2026-04-26 08:28 47.32628 8.37014 37211 ft 455 kts 129°
2026-04-26 08:29 47.28831 8.44461 37235 ft 455 kts 129°
2026-04-26 08:29 47.25033 8.51902 37234 ft 455 kts 129°
2026-04-26 08:30 47.21301 8.59425 37228 ft 455 kts 128°
2026-04-26 08:30 47.17591 8.66963 37227 ft 455 kts 128°
2026-04-26 08:31 47.14502 8.73211 37220 ft 455 kts 128°
2026-04-26 08:31 47.10773 8.80712 37219 ft 455 kts 128°
2026-04-26 08:32 47.07034 8.88205 37216 ft 455 kts 128°
2026-04-26 08:32 47.03290 8.95686 37216 ft 455 kts 128°
2026-04-26 08:33 46.99548 9.03145 37218 ft 455 kts 128°
2026-04-26 08:33 46.95798 9.10600 37240 ft 455 kts 128°
2026-04-26 08:34 46.92036 9.18057 37219 ft 455 kts 128°
2026-04-26 08:34 46.88273 9.25497 37235 ft 456 kts 128°
2026-04-26 08:35 46.84497 9.32943 37238 ft 456 kts 128°
2026-04-26 08:35 46.80721 9.40371 37245 ft 456 kts 128°
2026-04-26 08:36 46.76931 9.47803 37257 ft 456 kts 128°
2026-04-26 08:36 46.73162 9.55176 37258 ft 457 kts 128°
2026-04-26 08:37 46.69360 9.62595 37253 ft 457 kts 128°
2026-04-26 08:37 46.65551 9.70006 37242 ft 457 kts 128°
2026-04-26 08:38 46.61744 9.77395 37246 ft 456 kts 129°
2026-04-26 08:38 46.57936 9.84768 37245 ft 455 kts 129°
2026-04-26 08:39 46.54128 9.92118 37236 ft 455 kts 129°
2026-04-26 08:39 46.50321 9.99455 37248 ft 454 kts 129°
2026-04-26 08:40 46.46496 10.06734 37249 ft 453 kts 131°
2026-04-26 08:40 46.42450 10.13738 37246 ft 452 kts 133°
2026-04-26 08:41 46.38345 10.20646 37259 ft 452 kts 133°
2026-04-26 08:41 46.34258 10.27569 37245 ft 452 kts 132°
2026-04-26 08:42 46.30195 10.34494 37241 ft 451 kts 132°
2026-04-26 08:42 46.26134 10.41418 37236 ft 451 kts 132°
2026-04-26 08:43 46.22069 10.48335 37204 ft 452 kts 132°
2026-04-26 08:43 46.17998 10.55241 37215 ft 452 kts 132°
2026-04-26 08:44 46.13941 10.62106 37206 ft 452 kts 132°
2026-04-26 08:44 46.09855 10.69003 37213 ft 453 kts 132°
2026-04-26 08:45 46.05754 10.75907 37190 ft 453 kts 132°
2026-04-26 08:45 46.01646 10.82806 37185 ft 455 kts 132°
2026-04-26 08:46 45.97521 10.89718 37186 ft 455 kts 132°
2026-04-26 08:46 45.93387 10.96625 37165 ft 457 kts 132°
2026-04-26 08:47 45.89238 11.03544 37163 ft 456 kts 132°
2026-04-26 08:47 45.85090 11.10441 37153 ft 458 kts 132°
2026-04-26 08:48 45.80897 11.17393 37488 ft 460 kts 132°
2026-04-26 08:48 45.78820 11.20833 37824 ft 456 kts 133°
2026-04-26 08:48 45.76746 11.24263 38027 ft 454 kts 133°
2026-04-26 08:49 45.74674 11.27686 38166 ft 455 kts 133°
2026-04-26 08:49 45.72594 11.31115 38297 ft 456 kts 133°
2026-04-26 08:49 45.70540 11.34497 38423 ft 457 kts 133°
2026-04-26 08:49 45.68427 11.37973 38605 ft 457 kts 133°
2026-04-26 08:50 45.66345 11.41396 38796 ft 456 kts 133°
2026-04-26 08:50 45.64290 11.44769 38934 ft 456 kts 133°
2026-04-26 08:50 45.60126 11.51591 39093 ft 456 kts 133°
2026-04-26 08:51 45.53837 11.61861 39115 ft 458 kts 133°
2026-04-26 08:52 45.49612 11.68741 39114 ft 459 kts 133°
2026-04-26 08:52 45.45426 11.75540 39098 ft 459 kts 133°
2026-04-26 08:53 45.41212 11.82367 39106 ft 459 kts 133°
2026-04-26 08:53 45.36997 11.89180 39105 ft 459 kts 133°
2026-04-26 08:54 45.32783 11.95974 39107 ft 458 kts 133°
2026-04-26 08:54 45.28562 12.02763 39096 ft 458 kts 133°
2026-04-26 08:55 45.24347 12.09525 39109 ft 457 kts 133°
2026-04-26 08:55 45.20126 12.16280 39112 ft 457 kts 133°
2026-04-26 08:56 45.15907 12.23017 39114 ft 457 kts 133°
2026-04-26 08:56 45.11685 12.29741 39107 ft 457 kts 133°
2026-04-26 08:57 45.07463 12.36450 39113 ft 456 kts 133°
2026-04-26 08:57 45.03234 12.43154 39109 ft 456 kts 133°
2026-04-26 08:58 44.99004 12.49842 39116 ft 457 kts 133°
2026-04-26 08:58 44.94768 12.56525 39113 ft 457 kts 133°
2026-04-26 08:59 44.90522 12.63207 39115 ft 457 kts 133°
2026-04-26 08:59 44.86267 12.69886 39111 ft 458 kts 133°
2026-04-26 09:00 44.82008 12.76557 39119 ft 458 kts 133°
2026-04-26 09:00 44.77743 12.83222 39124 ft 458 kts 133°
2026-04-26 09:01 44.73466 12.89888 39129 ft 459 kts 133°
2026-04-26 09:01 44.69181 12.96553 39132 ft 460 kts 133°
2026-04-26 09:02 44.64890 13.03209 39127 ft 460 kts 133°
2026-04-26 09:02 44.60588 13.09868 39126 ft 460 kts 133°
2026-04-26 09:03 44.56280 13.16519 39129 ft 460 kts 133°
2026-04-26 09:03 44.51969 13.23159 39131 ft 460 kts 133°
2026-04-26 09:04 44.47681 13.29749 39129 ft 461 kts 133°
2026-04-26 09:04 44.43335 13.36412 39127 ft 461 kts 133°
2026-04-26 09:05 44.39013 13.43023 39125 ft 460 kts 133°
2026-04-26 09:05 44.34715 13.49582 39126 ft 460 kts 133°
2026-04-26 09:06 44.30388 13.56170 39124 ft 460 kts 133°
2026-04-26 09:06 44.26060 13.62746 39125 ft 460 kts 133°
2026-04-26 09:07 44.21728 13.69316 39129 ft 460 kts 132°
2026-04-26 09:07 44.17547 13.76067 39126 ft 460 kts 130°
2026-04-26 09:08 44.13453 13.82911 39122 ft 460 kts 130°
2026-04-26 09:08 44.09335 13.89749 39129 ft 461 kts 130°
2026-04-26 09:09 44.05200 13.96550 39126 ft 461 kts 130°
2026-04-26 09:09 44.01044 14.03343 39130 ft 461 kts 130°
2026-04-26 09:10 43.96879 14.10133 39126 ft 462 kts 130°
2026-04-26 09:10 43.92710 14.16914 39126 ft 462 kts 130°
2026-04-26 09:11 43.88533 14.23694 39128 ft 463 kts 130°
2026-04-26 09:11 43.84343 14.30480 39125 ft 463 kts 130°
2026-04-26 09:12 43.80154 14.37247 39124 ft 463 kts 130°
2026-04-26 09:12 43.75955 14.44014 39126 ft 463 kts 130°
2026-04-26 09:13 43.71748 14.50779 39119 ft 463 kts 130°
2026-04-26 09:13 43.67571 14.57481 39117 ft 463 kts 131°
2026-04-26 09:14 43.63337 14.64257 39126 ft 463 kts 131°
2026-04-26 09:14 43.59156 14.70932 39121 ft 462 kts 131°
2026-04-26 09:15 43.54948 14.77637 39120 ft 462 kts 131°
2026-04-26 09:15 43.50741 14.84322 39119 ft 461 kts 131°
2026-04-26 09:16 43.46534 14.90993 39119 ft 461 kts 131°
2026-04-26 09:16 43.42327 14.97649 39112 ft 460 kts 131°
2026-04-26 09:17 43.38124 15.04282 39118 ft 460 kts 131°
2026-04-26 09:17 43.33922 15.10900 39116 ft 459 kts 131°
2026-04-26 09:18 43.29721 15.17500 39114 ft 459 kts 131°
2026-04-26 09:18 43.25517 15.24089 39114 ft 459 kts 131°
2026-04-26 09:19 43.21313 15.30664 39119 ft 458 kts 132°
2026-04-26 09:19 43.17104 15.37232 39108 ft 459 kts 132°
2026-04-26 09:20 43.13603 15.42684 39118 ft 458 kts 132°
2026-04-26 09:20 43.09384 15.49239 39116 ft 459 kts 132°
2026-04-26 09:21 43.05168 15.55777 39116 ft 459 kts 132°
2026-04-26 09:21 43.00940 15.62316 39114 ft 459 kts 132°
2026-04-26 09:22 42.96703 15.68856 39114 ft 460 kts 133°
2026-04-26 09:22 42.92466 15.75380 39111 ft 460 kts 133°
2026-04-26 09:23 42.88220 15.81905 39117 ft 460 kts 133°
2026-04-26 09:23 42.83968 15.88424 39114 ft 460 kts 133°
2026-04-26 09:24 42.79709 15.94939 39114 ft 460 kts 133°
2026-04-26 09:24 42.75444 16.01448 39115 ft 461 kts 133°
2026-04-26 09:25 42.71173 16.07952 39116 ft 461 kts 133°
2026-04-26 09:25 42.66897 16.14448 39109 ft 461 kts 133°
2026-04-26 09:26 42.62623 16.20928 39114 ft 461 kts 133°
2026-04-26 09:26 42.58336 16.27412 39114 ft 461 kts 133°
2026-04-26 09:27 42.54056 16.33871 39117 ft 461 kts 134°
2026-04-26 09:27 42.49767 16.40330 39108 ft 461 kts 134°
2026-04-26 09:28 42.45475 16.46780 39116 ft 461 kts 134°
2026-04-26 09:28 42.41179 16.53221 39110 ft 461 kts 134°
2026-04-26 09:29 42.36881 16.59650 39111 ft 461 kts 134°
2026-04-26 09:29 42.32585 16.66063 39112 ft 460 kts 134°
2026-04-26 09:30 42.28283 16.72471 39108 ft 460 kts 134°
2026-04-26 09:30 42.23981 16.78865 39111 ft 460 kts 134°
2026-04-26 09:31 42.19707 16.85203 39111 ft 459 kts 134°
2026-04-26 09:31 42.15404 16.91569 39109 ft 459 kts 134°
2026-04-26 09:32 42.11105 16.97917 39110 ft 458 kts 134°
2026-04-26 09:32 42.06814 17.04240 39110 ft 457 kts 134°
2026-04-26 09:33 42.02518 17.10556 39106 ft 457 kts 134°
2026-04-26 09:33 41.98227 17.16853 39109 ft 456 kts 134°
2026-04-26 09:34 41.93943 17.23127 39109 ft 456 kts 134°
2026-04-26 09:34 41.89822 17.29602 39102 ft 456 kts 130°
2026-04-26 09:35 41.85902 17.36292 39106 ft 456 kts 129°
2026-04-26 09:35 41.81990 17.42982 39103 ft 456 kts 129°
2026-04-26 09:36 41.78050 17.49640 39108 ft 456 kts 130°
2026-04-26 09:36 41.74094 17.56276 39107 ft 456 kts 130°
2026-04-26 09:37 41.70128 17.62906 39107 ft 456 kts 130°
2026-04-26 09:37 41.66182 17.69490 39107 ft 457 kts 130°
2026-04-26 09:38 41.62176 17.76161 39098 ft 457 kts 130°
2026-04-26 09:38 41.58220 17.82734 39105 ft 457 kts 130°
2026-04-26 09:39 41.54226 17.89356 39105 ft 458 kts 130°
2026-04-26 09:39 41.50223 17.95979 39105 ft 458 kts 130°
2026-04-26 09:40 41.46218 18.02590 39103 ft 459 kts 130°
2026-04-26 09:40 41.42202 18.09206 39103 ft 459 kts 130°
2026-04-26 09:41 41.38179 18.15818 39103 ft 459 kts 130°
2026-04-26 09:41 41.34151 18.22423 39103 ft 459 kts 130°
2026-04-26 09:42 41.30119 18.29023 39103 ft 459 kts 130°
2026-04-26 09:42 41.26084 18.35611 39103 ft 459 kts 130°
2026-04-26 09:43 41.22050 18.42185 39103 ft 459 kts 130°
2026-04-26 09:43 41.18013 18.48749 39101 ft 459 kts 130°
2026-04-26 09:44 41.13977 18.55297 39107 ft 458 kts 130°
2026-04-26 09:44 41.09938 18.61836 39101 ft 458 kts 130°
2026-04-26 09:45 41.05899 18.68362 39105 ft 457 kts 131°
2026-04-26 09:45 41.01861 18.74872 39097 ft 457 kts 131°
2026-04-26 09:46 40.97826 18.81364 39099 ft 457 kts 131°
2026-04-26 09:46 40.93815 18.87805 39101 ft 456 kts 131°
2026-04-26 09:47 40.89776 18.94277 39103 ft 456 kts 130°
2026-04-26 09:47 40.86123 19.01140 39104 ft 457 kts 124°
2026-04-26 09:48 40.82744 19.08251 39097 ft 457 kts 123°
2026-04-26 09:48 40.79353 19.15358 39089 ft 458 kts 123°
2026-04-26 09:49 40.75917 19.22436 39105 ft 458 kts 124°
2026-04-26 09:49 40.72462 19.29486 39084 ft 458 kts 124°
2026-04-26 09:50 40.68994 19.36539 39087 ft 459 kts 124°
2026-04-26 09:50 40.65519 19.43592 39087 ft 459 kts 124°
2026-04-26 09:51 40.62039 19.50641 39077 ft 460 kts 124°
2026-04-26 09:51 40.58550 19.57693 39071 ft 460 kts 124°
2026-04-26 09:52 40.55053 19.64745 39082 ft 460 kts 124°
2026-04-26 09:52 40.49824 19.75262 39075 ft 460 kts 124°
2026-04-26 09:53 40.46313 19.82302 39060 ft 461 kts 124°
2026-04-26 09:53 40.42801 19.89329 39069 ft 460 kts 124°
2026-04-26 09:54 40.39284 19.96352 39058 ft 460 kts 124°
2026-04-26 09:54 40.35764 20.03362 39068 ft 460 kts 124°
2026-04-26 09:55 40.32244 20.10358 39059 ft 459 kts 124°
2026-04-26 09:55 40.28728 20.17331 39063 ft 458 kts 124°
2026-04-26 09:56 40.25211 20.24290 39043 ft 458 kts 124°
2026-04-26 09:56 40.21696 20.31231 39055 ft 458 kts 124°
2026-04-26 09:57 40.18175 20.38167 39049 ft 457 kts 124°
2026-04-26 09:57 40.14656 20.45085 39034 ft 456 kts 124°
2026-04-26 09:58 40.11140 20.51983 39058 ft 456 kts 124°
2026-04-26 09:58 40.07206 20.58444 39059 ft 454 kts 140°
2026-04-26 09:59 40.02923 20.62326 39036 ft 451 kts 156°
2026-04-26 09:59 39.96257 20.66293 38963 ft 453 kts 158°
2026-04-26 10:00 39.93354 20.68003 38439 ft 459 kts 157°
2026-04-26 10:00 39.90456 20.69733 37897 ft 457 kts 157°
2026-04-26 10:00 39.87620 20.71444 37374 ft 455 kts 156°
2026-04-26 10:00 39.84772 20.73170 37032 ft 449 kts 156°
2026-04-26 10:01 39.81955 20.74879 36616 ft 445 kts 156°
2026-04-26 10:01 39.79167 20.76568 36264 ft 440 kts 156°
2026-04-26 10:01 39.76404 20.78238 35869 ft 436 kts 156°
2026-04-26 10:01 39.73668 20.79902 35480 ft 433 kts 154°
2026-04-26 10:02 39.71211 20.82123 35070 ft 432 kts 135°
2026-04-26 10:02 39.69387 20.85196 34721 ft 428 kts 118°
2026-04-26 10:02 39.68276 20.88751 34352 ft 424 kts 106°
2026-04-26 10:02 39.67434 20.92405 33967 ft 421 kts 105°
2026-04-26 10:03 39.66615 20.96047 33522 ft 419 kts 105°
2026-04-26 10:03 39.65800 20.99660 33130 ft 417 kts 106°
2026-04-26 10:03 39.64977 21.03253 32748 ft 414 kts 106°
2026-04-26 10:03 39.64149 21.06823 32367 ft 412 kts 106°
2026-04-26 10:04 39.63316 21.10368 31991 ft 409 kts 106°
2026-04-26 10:04 39.62483 21.13888 31632 ft 407 kts 106°
2026-04-26 10:04 39.61651 21.17389 31263 ft 405 kts 106°
2026-04-26 10:04 39.60822 21.20866 30900 ft 403 kts 106°
2026-04-26 10:05 39.59994 21.24332 30542 ft 402 kts 106°
2026-04-26 10:05 39.59167 21.27788 30174 ft 400 kts 106°
2026-04-26 10:05 39.58346 21.31219 29776 ft 398 kts 106°
2026-04-26 10:05 39.57526 21.34638 29359 ft 396 kts 106°
2026-04-26 10:06 39.56711 21.38031 28964 ft 393 kts 106°
2026-04-26 10:06 39.55901 21.41395 28589 ft 389 kts 106°
2026-04-26 10:06 39.55098 21.44730 28216 ft 386 kts 106°
2026-04-26 10:06 39.54302 21.48032 27828 ft 383 kts 106°
2026-04-26 10:07 39.53509 21.51313 27475 ft 380 kts 106°
2026-04-26 10:07 39.52721 21.54570 27115 ft 378 kts 106°
2026-04-26 10:07 39.51937 21.57808 26736 ft 375 kts 106°
2026-04-26 10:07 39.51158 21.61019 26393 ft 373 kts 106°
2026-04-26 10:08 39.50382 21.64218 26027 ft 371 kts 106°
2026-04-26 10:08 39.49609 21.67399 25675 ft 369 kts 106°
2026-04-26 10:08 39.48838 21.70562 25316 ft 368 kts 106°
2026-04-26 10:08 39.48328 21.72655 25081 ft 367 kts 106°
2026-04-26 10:09 39.47312 21.76818 24608 ft 366 kts 106°
2026-04-26 10:09 39.46796 21.78931 24363 ft 365 kts 106°
2026-04-26 10:09 39.45782 21.83072 23885 ft 364 kts 105°
2026-04-26 10:09 39.45019 21.86188 23503 ft 363 kts 105°
2026-04-26 10:10 39.44256 21.89294 23105 ft 361 kts 105°
2026-04-26 10:10 39.43498 21.92381 22730 ft 359 kts 105°
2026-04-26 10:10 39.42743 21.95447 22363 ft 357 kts 105°
2026-04-26 10:10 39.42235 21.97508 22129 ft 355 kts 105°
2026-04-26 10:11 39.41488 22.00538 21779 ft 353 kts 105°
2026-04-26 10:11 39.40745 22.03549 21435 ft 350 kts 105°
2026-04-26 10:11 39.40006 22.06539 21090 ft 348 kts 105°
2026-04-26 10:11 39.39269 22.09516 20748 ft 346 kts 105°
2026-04-26 10:12 39.38547 22.12429 20424 ft 345 kts 105°
2026-04-26 10:12 39.37817 22.15373 20092 ft 343 kts 105°
2026-04-26 10:12 39.37090 22.18302 19755 ft 342 kts 105°
2026-04-26 10:12 39.36365 22.21218 19416 ft 340 kts 105°
2026-04-26 10:13 39.35641 22.24123 19076 ft 339 kts 105°
2026-04-26 10:13 39.34920 22.27018 18753 ft 338 kts 105°
2026-04-26 10:13 39.34200 22.29904 18409 ft 337 kts 105°
2026-04-26 10:13 39.33481 22.32786 18026 ft 337 kts 105°
2026-04-26 10:14 39.32764 22.35656 17663 ft 335 kts 106°
2026-04-26 10:14 39.32048 22.38512 17323 ft 333 kts 106°
2026-04-26 10:14 39.31336 22.41346 16984 ft 331 kts 106°
2026-04-26 10:14 39.30622 22.44167 16647 ft 330 kts 106°
2026-04-26 10:15 39.29910 22.46972 16316 ft 328 kts 107°
2026-04-26 10:15 39.29201 22.49758 15994 ft 326 kts 107°
2026-04-26 10:15 39.28495 22.52533 15650 ft 325 kts 107°
2026-04-26 10:15 39.27791 22.55297 15322 ft 323 kts 107°
2026-04-26 10:16 39.27090 22.58045 14995 ft 322 kts 107°
2026-04-26 10:16 39.26393 22.60779 14677 ft 321 kts 107°
2026-04-26 10:16 39.25696 22.63509 14354 ft 319 kts 107°
2026-04-26 10:16 39.25002 22.66227 14030 ft 319 kts 107°
2026-04-26 10:17 39.24308 22.68939 13680 ft 318 kts 108°
2026-04-26 10:17 39.23616 22.71643 13334 ft 317 kts 108°
2026-04-26 10:17 39.22927 22.74333 13002 ft 315 kts 108°
2026-04-26 10:17 39.22239 22.77011 12674 ft 314 kts 108°
2026-04-26 10:18 39.21590 22.79686 12348 ft 312 kts 101°
2026-04-26 10:18 39.21343 22.82449 12028 ft 309 kts 92°
2026-04-26 10:18 39.21251 22.85212 11706 ft 308 kts 91°
2026-04-26 10:18 39.21177 22.87961 11390 ft 306 kts 91°
2026-04-26 10:19 39.21097 22.90695 11078 ft 304 kts 91°
2026-04-26 10:19 39.21009 22.93414 10775 ft 303 kts 92°
2026-04-26 10:19 39.20913 22.96114 10470 ft 301 kts 92°
2026-04-26 10:19 39.20812 22.98804 10213 ft 298 kts 92°
2026-04-26 10:20 39.20709 23.01436 10082 ft 290 kts 92°
2026-04-26 10:20 39.20606 23.04005 9940 ft 281 kts 92°
2026-04-26 10:20 39.20505 23.06493 9561 ft 276 kts 92°
2026-04-26 10:20 39.20406 23.08893 9301 ft 271 kts 92°
2026-04-26 10:21 39.20305 23.11328 9008 ft 273 kts 92°
2026-04-26 10:21 39.20202 23.13779 8725 ft 275 kts 92°
2026-04-26 10:21 39.20099 23.16241 8445 ft 275 kts 92°
2026-04-26 10:21 39.19995 23.18693 8167 ft 273 kts 92°
2026-04-26 10:22 39.19891 23.21121 7904 ft 271 kts 92°
2026-04-26 10:22 39.19787 23.23544 7631 ft 270 kts 92°
2026-04-26 10:22 39.19683 23.25943 7350 ft 264 kts 92°
2026-04-26 10:22 39.19583 23.28258 7095 ft 254 kts 92°
2026-04-26 10:23 39.19485 23.30497 6846 ft 247 kts 92°
2026-04-26 10:23 39.19390 23.32693 6592 ft 245 kts 91°
2026-04-26 10:23 39.19296 23.34881 6355 ft 244 kts 91°
2026-04-26 10:23 39.19200 23.37062 6088 ft 243 kts 91°
2026-04-26 10:24 39.19103 23.39234 5850 ft 242 kts 91°
2026-04-26 10:24 39.19007 23.41398 5593 ft 241 kts 91°
2026-04-26 10:24 39.18910 23.43548 5349 ft 237 kts 91°
2026-04-26 10:24 39.18815 23.45633 5099 ft 230 kts 91°
2026-04-26 10:25 39.18720 23.47658 4871 ft 222 kts 92°
2026-04-26 10:25 39.18630 23.49605 4652 ft 214 kts 91°
2026-04-26 10:25 39.18540 23.51491 4438 ft 209 kts 91°
2026-04-26 10:25 39.18454 23.53313 4298 ft 198 kts 91°
2026-04-26 10:26 39.18371 23.55090 4223 ft 199 kts 91°
2026-04-26 10:26 39.18287 23.56863 4145 ft 197 kts 91°
2026-04-26 10:26 39.18096 23.58602 4039 ft 197 kts 112°
2026-04-26 10:26 39.17175 23.59825 3940 ft 194 kts 157°
2026-04-26 10:27 39.15843 23.60017 3785 ft 198 kts 194°
2026-04-26 10:27 39.14579 23.59337 3622 ft 197 kts 208°
2026-04-26 10:27 39.13365 23.58540 3412 ft 194 kts 208°
2026-04-26 10:27 39.12196 23.57770 3206 ft 184 kts 208°
2026-04-26 10:28 39.11077 23.57035 3044 ft 178 kts 208°
2026-04-26 10:28 39.09972 23.56310 2858 ft 175 kts 208°
2026-04-26 10:28 39.08908 23.55614 2678 ft 168 kts 208°
2026-04-26 10:28 39.07873 23.54938 2525 ft 167 kts 208°
2026-04-26 10:29 39.06837 23.54262 2380 ft 168 kts 208°
2026-04-26 10:29 39.05793 23.53578 2220 ft 168 kts 209°
2026-04-26 10:29 39.05006 23.52536 2024 ft 164 kts 254°
2026-04-26 10:29 39.05076 23.51150 1959 ft 155 kts 296°
2026-04-26 10:30 39.05799 23.50210 1923 ft 150 kts 333°
2026-04-26 10:30 39.06742 23.49585 1834 ft 154 kts 331°
2026-04-26 10:30 39.07682 23.48937 1738 ft 152 kts 331°
2026-04-26 10:30 39.08614 23.48297 1649 ft 152 kts 330°
2026-04-26 10:31 39.09596 23.47796 1434 ft 154 kts
2026-04-26 10:31 39.10614 23.48199 1223 ft 153 kts 15°
2026-04-26 10:31 39.11634 23.48490 1095 ft 150 kts
2026-04-26 10:31 39.12682 23.48732 859 ft 154 kts 11°
2026-04-26 10:32 39.13721 23.48984 657 ft 150 kts 10°
2026-04-26 10:32 39.14747 23.49223 502 ft 150 kts 11°
2026-04-26 10:32 39.15775 23.49504 281 ft 150 kts 16°
2026-04-26 10:32 39.16748 23.49931 83 ft 143 kts 20°
2026-04-26 10:33 39.17577 23.50302 40 ft 81 kts 19°
2026-04-26 10:33 39.17863 23.50433 37 ft 24 kts 20°
2026-04-26 10:33 39.17925 23.50396 41 ft 10 kts 266°
2026-04-26 10:33 39.17886 23.50327 39 ft 11 kts 207°
2026-04-26 10:34 39.17839 23.50305 38 ft 5 kts 199°
2026-04-26 10:34 39.17822 23.50275 38 ft 4 kts 269°
2026-04-26 10:34 39.17828 23.50238 38 ft 3 kts 289°
2026-04-26 10:34 39.17832 23.50223 38 ft 2 kts 289°
2026-04-26 10:35 39.17835 23.50215 38 ft 0 kts 289°